Regional Weather Roundup
Issued by NWS

Home | Current Version | Previous Version | Text Only | Print | Product List | Glossary On
Versions: 1 2 3 4 5 6 7 8 9 10 11 12 13 14 15 16 17 18 19 20 21 22 23 24 25 26 27 28 29 30 31 32 33 34 35 36 37 38 39 40 41 42 43 44 45 46 47 48 49 50
000
ASUS44 KLUB 281201
RWRTX
WEST TEXAS WEATHER ROUNDUP
NATIONAL WEATHER SERVICE LUBBOCK TX
700 AM CDT TUE JUL 28 2015

NOTE: "FAIR" INDICATES FEW OR NO CLOUDS BELOW 12,000 FEET WITH NO
SIGNIFICANT WEATHER AND/OR OBSTRUCTIONS TO VISIBILITY.

TXZ004-006>008-010-012-014-016-OKZ002-281300-
TEXAS PANHANDLE/OKLAHOMA PANHANDLE

CITY           SKY/WX    TMP DP  RH WIND       PRES   REMARKS
AMARILLO       CLEAR     72  61  68 S14       29.98R
BORGER         CLEAR     75  64  68 SW6       29.95R
CANADIAN       CLEAR     74  65  74 CALM      29.91S
DALHART        PTCLDY    65  60  84 SW7       30.00R
DUMAS          PTCLDY    69  62  77 S8        29.97R
GUYMON         MOCLDY    74  63  68 SW10      29.91R
$$

TXZ026-029-035-045-048-281300-
SOUTHERN PANHANDLE/SOUTH PLAINS/ROLLING PLAINS

CITY           SKY/WX    TMP DP  RH WIND       PRES   REMARKS
CHILDRESS      CLEAR     77  64  64 S12       29.92R
SEMINOLE       CLEAR     73  59  62 CALM      30.01R
LUBBOCK        PTCLDY    74  60  61 S8        30.00R
$$

TXZ052-054-060>062-072-078-127-140-154-169-281300-
PERMIAN BASIN/CONCHO VALLEY/BIG COUNTRY/EDWARDS PLATEAU

CITY           SKY/WX    TMP DP  RH WIND       PRES   REMARKS
ABILENE        CLEAR     76  66  71 S8        29.97R
BIG SPRING     CLEAR     75  63  64 SE13      29.99R
JUNCTION       CLOUDY    77  69  76 S8        29.99R
MIDLAND        CLEAR     78  62  57 MISG      29.98R
ODESSA         CLEAR     78  60  53 S8        29.99R
SAN ANGELO     CLEAR     77  69  76 S7        29.96R
WINK           CLEAR     79  59  50 SE13      29.94R
$$

TXZ055-058-074-075-080-082-281300-
FAR WEST/SOUTHWEST MOUNTAINS/TRANS PECOS

CITY           SKY/WX    TMP DP  RH WIND       PRES   REMARKS
ALPINE         CLEAR     68  57  67 SW9       30.15R
DRYDEN           N/A     78  72  81 VRB5      29.95R
EL PASO        PTCLDY    79  55  43 S7        30.04R
FORT STOCKTON  CLEAR     74  62  66 S10       29.98R
GUADALUPE PASS MOCLDY    70  54  56 SW16      30.15R
MARFA          CLEAR     61  59  94 NE3       30.14R
$$

TXZ014-016-019-021>030-083-281300
TEXAS TECH WEST TEXAS MESONET/TEXAS PANHANDLE/NORTHERN SOUTH PLAINS

CITY           SKY/WX    TMP DP  RH WIND       PRES   REMARKS
ABERNATHY 5ENE   N/A     66  61  85 S6        30.01R
AMARILLO 9NNE    N/A     71  63  74 CALM      29.97R
AMARILLO 7SSE    N/A     68  62  83 S6        29.99R
AMHERST 1NE      N/A     69  60  74 S7        30.00R
BOOTLEG 11WNW    N/A     62  56  82 NW2       30.07R
CANADIAN 6E      N/A     73  63  69 SE6       29.91R
CAPROCK CYN SP   N/A     76  62  59 S13       29.94S
CHILDRESS 2NNE   N/A     76  63  65 S10       29.92R
CLARENDON 2WSW   N/A     74  62  66 S10       29.94S
CLAUDE 12SW      N/A     74  63  68 S9        29.98S
DIMMITT 2NE      N/A     67  61  81 S8        30.00R
FLOYDADA 2NNE    N/A     71  61  71 S8        30.00R
FRIONA 2NE       N/A     65  59  79 SW7       30.02R
GOODLETT 3W      N/A     76  63  65 S7        29.90R
HART 3N          N/A     68  62  78 S7        30.00R
HEREFORD 2NW     N/A     69  59  69 S7        30.00R
MCLEAN 1E        N/A     72  63  73 SE8       29.94S
MEMPHIS 1NE      N/A     71  64  78 SE2       29.92S
MULESHOE 2SSW    N/A     69  60  74 S5        30.00R
OLTON 6S         N/A     70  59  67 S12       30.00R
PALO DURO SP     N/A     73  62  69 S9        29.99S
PAMPA 2E         N/A     71  63  77 SE9       29.96S
PLAINVIEW 1S     N/A     69  63  80 S7        29.99S
SILVERTON 7ESE   N/A     74  61  63 SW14      29.97S
TULIA 2ENE       N/A     69  63  81 S8        29.98S
TURKEY 2WSW      N/A     73  64  73 S9        29.93S
UMBARGER 3NNE    N/A     70  62  75 S9        30.00R
$$

TXZ033>036-039>041-045>048-281300
TEXAS TECH WEST TEXAS MESONET/SOUTH PLAINS

CITY           SKY/WX    TMP DP  RH WIND       PRES   REMARKS
AIKEN 3WSW       N/A     69  62  78 SW6       30.01R
ANDREWS 2NE      N/A     74  58  57 S6        29.99S
ANTON 6SSW       N/A     67  61  79 SE5       30.00R
BROWNFIELD 2S    N/A     69  59  71 CALM      30.01R
DENVR CTY 7WNW   N/A     68  56  67 S7        30.01S
GAIL 2ESE        N/A     70  61  72 SE6       29.97R
LAMESA 2SE       N/A     69  60  73 SE3       30.00R
LEVELLAND 4S     N/A     67  60  76 SE7       30.01S
MORTON 1ENE      N/A     71  60  66 S8        30.01R
ODONNELL 1N      N/A     72  59  62 SE5       30.00R
PLAINS 3N        N/A     69  58  69 SE9       30.02R
RALLS 1SE        N/A     69  61  76 S6        30.01R
REESE CENTER     N/A     69  60  73 S5        30.01R
SEAGRAVES 1SW    N/A     68  58  70 CALM      30.01R
SEMINOLE 2NNE    N/A     71  58  63 SE2       30.00R
SLATON 2NE       N/A     67  60  77 S2        30.00R
SNYDER 3E        N/A     75  63  67 S9        29.97R
SUNDOWN 8SW      N/A     66  58  76 SE7       30.01S
TAHOKA 3NNE      N/A     69  60  73 S5        30.00R
WOLFFORTH 6SSW   N/A     67  60  77 S2        30.02R
$$

TXZ031-032-036>038-042>044-281300-
TEXAS TECH WEST TEXAS MESONET/ROLLING PLAINS

CITY           SKY/WX    TMP DP  RH WIND       PRES   REMARKS
ASPERMONT 3NE    N/A     75  64  68 SE7       29.93R
FLUVANNA 3WNW    N/A     73  60  64 S9        29.98R
GRAHAM 5SSW      N/A     75  59  57 SE6       29.99R
GUTHRIE 10WSW    N/A     72  63  72 SW5       29.93R
HASKELL 1NW      N/A     77  63  61 S7        29.93R
JAYTON 1SSE      N/A     73  63  70 S5        29.94R
KNOX CITY 3NW    N/A     78  63  60 S9        29.92R
LK A HENRY 1NW   N/A     77  62  59 S7        29.96R
NORTHFIELD 1S    N/A     76  64  66 S13       29.92R
ODELL 4ENE       N/A     78  66  66 S13       29.91R
PADUCAH 10SW     N/A     74  64  70 S8        29.93R
POST 1NE         N/A     74  60  60 S5        29.98R
RRING SPRGS 3N   N/A     70  64  81 S9        29.96R
SEYMOUR 3NW      N/A     76  65  69 SE8       29.91S
SPUR 1W          N/A     69  63  80 NW1       29.95R
WEINERT 2NNE     N/A     77  66  68 S9        29.93R
WHITE RVR 6NE    N/A     73  61  65 SW3       29.98R
$$

TXZ052-054-060>062-072-078-127-140-154-169-281300-
TEXAS TECH WEST TEXAS MESONET/PERMIAN BASIN/
CONCHO VALLEY/BIG COUNTRY/EDWARDS PLATEAU

CITY           SKY/WX    TMP DP  RH WIND       PRES   REMARKS
COYANOSA 2N      N/A     76  60  57 SE8       29.95R
JUNCTION 1SSW    N/A     77  70  79 S7        29.99R
MERTZON 3NNE     N/A     74  69  84 S8        29.98R
SAN ANGELO 7NW   N/A     76  67  72 SE6       29.97R
STRLNG CT 4WSW   N/A     76  67  74 SE7       29.98R
ST LAWRNCE 5SW   N/A     73  63  71 SE8       29.98R
SWEETWATR 11SW   N/A     74  65  73 SE10      30.00R
WALL 1E          N/A     76  67  74 S6        29.97R
$$

TXZ055-058-074-075-080-082-281300-
TEXAS TECH WEST TEXAS MESONET/FAR WEST/SOUTHWEST MOUNTAINS/TRANS PECOS

CITY           SKY/WX    TMP DP  RH WIND       PRES   REMARKS
PRSMN GAP BBNP   N/A     78  62  56 NE8       29.98R
$$


USA.gov is the U.S. government's official web portal to all federal, state and local government web resources and services.